Location: ??????????
(31.2156°N, 29.9553°E)
Time: 05:11:24
(UTC+00:00)

Cosmos 1666 - Pass Details

Date: 03 March 2021
Orbit: 497 x 518 km, 82.5° (Epoch: 14 April)

Event Time Altitude Azimuth Distance (km) Brightness Sun altitude
Rises 16:49:28 0° 163° (SSE) 2,568 6.1 -11.4°
Reaches altitude 10° 16:51:45 10° 151° (SSE) 1,690 5.0 -11.9°
Maximum altitude 16:54:57 28° 91° (E) 957 3.4 -12.6°
Drops below altitude 10° 16:58:10 10° 31° (NNE) 1,701 5.0 -13.2°
Sets 17:00:29 0° 20° (NNE) 2,590 6.1 -13.7°
